When you browse on this site, cookies collect data to enhance your experience and personalize the content and advertising you see.
Visit our Privacy Policy to learn more. By continuing to use the site, you agree to this use of cookies and data.
  • In Lithuania
  • List of Countries
  • For 7 days
  • Water Temperature
  • Satellite Maps
  • Weather Map
  • Weather Widgets
  • user-avatar
    Login

    Hourly Weather Córdoba

    Today, 12 December, Wednesday

    Time Temperature Precipitation Wind Pressure Humidity
    00:00 +26°C° 1.5 mm 4 mps 721 mmHg 86%
    01:00 +25°C° 1.5 mm 4 mps 721 mmHg 87%
    02:00 +25°C° 1.5 mm 5 mps 721 mmHg 87%
    03:00 +23°C° 1.3 mm 5 mps 722 mmHg 88%
    04:00 +23°C° 1.3 mm 5 mps 722 mmHg 88%
    05:00 +23°C° 1.3 mm 5 mps 722 mmHg 88%
    06:00 +23°C° 0.2 mm 5 mps 723 mmHg 85%
    07:00 +23°C° 0.2 mm 5 mps 723 mmHg 82%
    08:00 +25°C° 0.2 mm 5 mps 723 mmHg 80%
    09:00 +26°C° 0.1 mm 5 mps 724 mmHg 75%
    10:00 +27°C° 0.1 mm 4 mps 724 mmHg 71%
    11:00 +27°C° 0.1 mm 4 mps 724 mmHg 66%
    12:00 +28°C° 0 mm 4 mps 723 mmHg 62%
    13:00 +29°C° 0 mm 4 mps 723 mmHg 58%
    14:00 +30°C° 0 mm 4 mps 722 mmHg 55%
    15:00 +30°C° 0 mm 4 mps 722 mmHg 56%
    16:00 +30°C° 0 mm 4 mps 721 mmHg 57%
    17:00 +30°C° 0 mm 4 mps 720 mmHg 58%
    18:00 +29°C° 0 mm 3 mps 720 mmHg 64%
    19:00 +27°C° 0 mm 2 mps 721 mmHg 70%
    20:00 +26°C° 0 mm 1 mps 721 mmHg 77%
    21:00 +25°C° 0 mm 1 mps 721 mmHg 79%
    22:00 +25°C° 0 mm 1 mps 721 mmHg 82%
    23:00 +25°C° 0 mm 1 mps 721 mmHg 85%

    Tomorrow, 13 December, Thursday

    Time Temperature Precipitation Wind Pressure Humidity
    00:00 +25°C° 0.3 mm 1 mps 720 mmHg 86%
    01:00 +25°C° 0.3 mm 1 mps 720 mmHg 87%
    02:00 +24°C° 0.3 mm 1 mps 719 mmHg 89%
    03:00 +24°C° 0.6 mm 1 mps 719 mmHg 90%
    04:00 +24°C° 0.6 mm 1 mps 718 mmHg 92%
    05:00 +24°C° 0.6 mm 1 mps 718 mmHg 93%
    06:00 +25°C° 0.3 mm 2 mps 718 mmHg 89%
    07:00 +26°C° 0.3 mm 2 mps 718 mmHg 85%
    08:00 +28°C° 0.3 mm 3 mps 718 mmHg 82%
    09:00 +28°C° 0.8 mm 4 mps 718 mmHg 79%
    10:00 +29°C° 0.8 mm 4 mps 717 mmHg 77%
    11:00 +30°C° 0.8 mm 5 mps 717 mmHg 75%
    12:00 +32°C° 0.7 mm 5 mps 716 mmHg 70%
    13:00 +33°C° 0.7 mm 4 mps 716 mmHg 65%
    14:00 +35°C° 0.7 mm 4 mps 715 mmHg 60%
    15:00 +36°C° 0 mm 4 mps 714 mmHg 56%
    16:00 +36°C° 0 mm 4 mps 714 mmHg 52%
    17:00 +37°C° 0 mm 4 mps 713 mmHg 48%
    18:00 +35°C° 0.4 mm 4 mps 713 mmHg 56%
    19:00 +33°C° 0.4 mm 3 mps 713 mmHg 64%
    20:00 +30°C° 0.4 mm 2 mps 714 mmHg 72%
    21:00 +29°C° 1.7 mm 3 mps 714 mmHg 76%
    22:00 +28°C° 1.7 mm 3 mps 715 mmHg 79%
    23:00 +27°C° 1.7 mm 3 mps 716 mmHg 83%

    Day after tomorrow, 14 December, Friday

    Time Temperature Precipitation Wind Pressure Humidity
    00:00 +26°C° 1.5 mm 4 mps 716 mmHg 85%
    01:00 +25°C° 1.5 mm 4 mps 716 mmHg 87%
    02:00 +25°C° 1.5 mm 4 mps 715 mmHg 89%
    03:00 +23°C° 0.5 mm 4 mps 716 mmHg 90%
    04:00 +24°C° 0.5 mm 3 mps 717 mmHg 91%
    05:00 +22°C° 0.5 mm 3 mps 717 mmHg 92%
    06:00 +23°C° 0 mm 4 mps 718 mmHg 85%
    07:00 +25°C° 0 mm 5 mps 719 mmHg 77%
    08:00 +27°C° 0 mm 6 mps 720 mmHg 69%
    09:00 +27°C° 0 mm 6 mps 720 mmHg 66%
    10:00 +28°C° 0 mm 7 mps 720 mmHg 62%
    11:00 +28°C° 0 mm 8 mps 721 mmHg 59%
    12:00 +28°C° 0 mm 7 mps 721 mmHg 54%
    13:00 +29°C° 0 mm 7 mps 721 mmHg 49%
    14:00 +29°C° 0 mm 6 mps 721 mmHg 45%
    15:00 +29°C° 0 mm 6 mps 721 mmHg 44%
    16:00 +28°C° 0 mm 6 mps 721 mmHg 44%
    17:00 +28°C° 0 mm 6 mps 721 mmHg 44%
    18:00 +26°C° 0 mm 5 mps 722 mmHg 46%
    19:00 +23°C° 0 mm 4 mps 722 mmHg 49%
    20:00 +22°C° 0 mm 3 mps 723 mmHg 51%
    21:00 +21°C° 0 mm 3 mps 723 mmHg 51%
    22:00 +20°C° 0 mm 3 mps 724 mmHg 51%
    23:00 +19°C° 0 mm 3 mps 724 mmHg 50%

    15 December, Saturday

    Time Temperature Precipitation Wind Pressure Humidity
    00:00 +19°C° 0 mm 3 mps 724 mmHg 50%
    01:00 +19°C° 0 mm 3 mps 724 mmHg 49%
    02:00 +18°C° 0 mm 3 mps 724 mmHg 48%
    03:00 +18°C° 0 mm 3 mps 724 mmHg 48%
    04:00 +17°C° 0 mm 2 mps 725 mmHg 48%
    05:00 +17°C° 0 mm 2 mps 725 mmHg 48%
    06:00 +19°C° 0 mm 2 mps 726 mmHg 43%
    07:00 +21°C° 0 mm 2 mps 726 mmHg 39%
    08:00 +23°C° 0 mm 2 mps 727 mmHg 34%
    09:00 +25°C° 0 mm 2 mps 727 mmHg 31%
    10:00 +27°C° 0 mm 2 mps 727 mmHg 28%
    11:00 +28°C° 0 mm 2 mps 727 mmHg 25%
    12:00 +29°C° 0 mm 3 mps 726 mmHg 24%
    13:00 +30°C° 0 mm 4 mps 725 mmHg 24%
    14:00 +32°C° 0 mm 4 mps 725 mmHg 24%
    15:00 +30°C° 0 mm 4 mps 724 mmHg 26%
    16:00 +30°C° 0 mm 4 mps 724 mmHg 28%
    17:00 +29°C° 0 mm 4 mps 723 mmHg 30%
    18:00 +27°C° 0 mm 3 mps 723 mmHg 36%
    19:00 +25°C° 0 mm 2 mps 723 mmHg 43%
    20:00 +21°C° 0 mm 2 mps 723 mmHg 49%
    21:00 +22°C° 0 mm 1 mps 724 mmHg 50%
    22:00 +21°C° 0 mm 1 mps 724 mmHg 51%
    23:00 +21°C° 0 mm 1 mps 724 mmHg 52%

    16 December, Sunday

    Time Temperature Precipitation Wind Pressure Humidity
    00:00 +21°C° 0 mm 1 mps 724 mmHg 52%
    01:00 +21°C° 0 mm 1 mps 723 mmHg 53%
    02:00 +20°C° 0 mm 1 mps 723 mmHg 53%
    03:00 +20°C° 0 mm 1 mps 723 mmHg 55%
    04:00 +20°C° 0 mm 1 mps 723 mmHg 57%
    05:00 +20°C° 0 mm 1 mps 723 mmHg 58%
    06:00 +21°C° 0 mm 2 mps 724 mmHg 59%
    07:00 +24°C° 0 mm 2 mps 724 mmHg 59%
    08:00 +26°C° 0 mm 3 mps 724 mmHg 60%
    09:00 +28°C° 0 mm 3 mps 724 mmHg 57%
    10:00 +30°C° 0 mm 4 mps 724 mmHg 54%
    11:00 +33°C° 0 mm 4 mps 724 mmHg 51%
    12:00 +34°C° 0 mm 4 mps 723 mmHg 48%
    13:00 +35°C° 0 mm 3 mps 723 mmHg 44%
    14:00 +36°C° 0 mm 3 mps 722 mmHg 40%
    15:00 +36°C° 0 mm 3 mps 722 mmHg 41%
    16:00 +36°C° 0 mm 3 mps 721 mmHg 42%
    17:00 +35°C° 0 mm 4 mps 721 mmHg 43%
    18:00 +33°C° 0 mm 3 mps 721 mmHg 52%
    19:00 +30°C° 0 mm 3 mps 721 mmHg 61%
    20:00 +28°C° 0 mm 2 mps 721 mmHg 70%
    21:00 +27°C° 0.2 mm 2 mps 721 mmHg 73%
    22:00 +27°C° 0.2 mm 2 mps 721 mmHg 76%
    23:00 +26°C° 0.2 mm 1 mps 722 mmHg 78%

    17 December, Monday

    Time Temperature Precipitation Wind Pressure Humidity
    00:00 +26°C° 0.2 mm 1 mps 721 mmHg 79%
    01:00 +25°C° 0.2 mm 1 mps 721 mmHg 79%
    02:00 +25°C° 0.2 mm 1 mps 721 mmHg 80%
    03:00 +25°C° 0 mm 2 mps 721 mmHg 80%
    04:00 +25°C° 0 mm 2 mps 721 mmHg 79%
    05:00 +25°C° 0 mm 2 mps 721 mmHg 79%
    06:00 +27°C° 0 mm 2 mps 722 mmHg 70%
    07:00 +29°C° 0 mm 2 mps 722 mmHg 61%
    08:00 +32°C° 0 mm 2 mps 723 mmHg 52%
    09:00 +34°C° 0 mm 2 mps 723 mmHg 48%
    10:00 +35°C° 0 mm 3 mps 723 mmHg 43%
    11:00 +36°C° 0 mm 4 mps 723 mmHg 39%
    12:00 +37°C° 0 mm 4 mps 723 mmHg 38%
    13:00 +37°C° 0 mm 4 mps 722 mmHg 37%
    14:00 +37°C° 0 mm 4 mps 722 mmHg 36%
    15:00 +36°C° 0.1 mm 4 mps 722 mmHg 40%
    16:00 +35°C° 0.1 mm 4 mps 721 mmHg 44%
    17:00 +34°C° 0.1 mm 4 mps 721 mmHg 48%
    18:00 +32°C° 1.2 mm 4 mps 721 mmHg 57%
    19:00 +30°C° 1.2 mm 3 mps 722 mmHg 65%
    20:00 +28°C° 1.2 mm 3 mps 722 mmHg 73%
    21:00 +26°C° 3 mm 3 mps 722 mmHg 78%
    22:00 +25°C° 3 mm 3 mps 723 mmHg 83%
    23:00 +24°C° 3 mm 3 mps 723 mmHg 89%
    Show more